When you browse on this site, cookies collect data to enhance your experience and personalize the content and advertising you see.
Visit our Privacy Policy to learn more. By continuing to use the site, you agree to this use of cookies and data.
  • en France
  • Liste des pays
  • À 7 jours
  • Température de l'eau
  • Carte satellitaire
  • Carte météo
  • Widgets météo
  • user-avatar
    Se connecter

    Météo par heure à Sofia

    Ce jour, 25 Mai, Samedi

    Heure Température Précipitation Vent Pression Humidité
    00:00 +9°C° 0 mm 2 m/s 707 mmHg 90%
    01:00 +9°C° 0 mm 2 m/s 707 mmHg 91%
    02:00 +9°C° 0 mm 2 m/s 707 mmHg 92%
    03:00 +9°C° 0 mm 2 m/s 707 mmHg 92%
    04:00 +9°C° 0 mm 2 m/s 707 mmHg 92%
    05:00 +9°C° 0 mm 2 m/s 707 mmHg 92%
    06:00 +12°C° 0 mm 2 m/s 708 mmHg 85%
    07:00 +13°C° 0 mm 2 m/s 708 mmHg 78%
    08:00 +14°C° 0 mm 3 m/s 708 mmHg 72%
    09:00 +16°C° 0 mm 3 m/s 708 mmHg 70%
    10:00 +17°C° 0 mm 3 m/s 708 mmHg 67%
    11:00 +17°C° 0 mm 3 m/s 709 mmHg 65%
    12:00 +19°C° 0.1 mm 4 m/s 709 mmHg 60%
    13:00 +20°C° 0.1 mm 4 m/s 709 mmHg 56%
    14:00 +21°C° 0.1 mm 4 m/s 709 mmHg 51%
    15:00 +21°C° 0.1 mm 4 m/s 709 mmHg 52%
    16:00 +21°C° 0.1 mm 3 m/s 709 mmHg 53%
    17:00 +21°C° 0.1 mm 3 m/s 709 mmHg 53%
    18:00 +19°C° 0 mm 3 m/s 709 mmHg 61%
    19:00 +17°C° 0 mm 2 m/s 709 mmHg 69%
    20:00 +15°C° 0 mm 1 m/s 708 mmHg 77%
    21:00 +15°C° 0 mm 1 m/s 709 mmHg 80%
    22:00 +14°C° 0 mm 1 m/s 709 mmHg 83%
    23:00 +13°C° 0 mm 1 m/s 710 mmHg 86%

    Demain, 26 Mai, Dimanche

    Heure Température Précipitation Vent Pression Humidité
    00:00 +12°C° 0 mm 1 m/s 710 mmHg 86%
    01:00 +12°C° 0 mm 1 m/s 710 mmHg 87%
    02:00 +12°C° 0 mm 1 m/s 710 mmHg 87%
    03:00 +11°C° 0 mm 1 m/s 710 mmHg 87%
    04:00 +11°C° 0 mm 1 m/s 710 mmHg 87%
    05:00 +11°C° 0 mm 1 m/s 710 mmHg 86%
    06:00 +13°C° 0 mm 1 m/s 710 mmHg 79%
    07:00 +15°C° 0 mm 1 m/s 710 mmHg 71%
    08:00 +19°C° 0 mm 1 m/s 711 mmHg 64%
    09:00 +21°C° 0 mm 1 m/s 711 mmHg 57%
    10:00 +23°C° 0 mm 1 m/s 711 mmHg 49%
    11:00 +25°C° 0 mm 1 m/s 712 mmHg 42%
    12:00 +26°C° 0 mm 1 m/s 712 mmHg 39%
    13:00 +27°C° 0 mm 1 m/s 712 mmHg 37%
    14:00 +28°C° 0 mm 1 m/s 712 mmHg 35%
    15:00 +28°C° 0 mm 1 m/s 711 mmHg 36%
    16:00 +27°C° 0 mm 1 m/s 711 mmHg 37%
    17:00 +25°C° 0 mm 0 m/s 711 mmHg 38%
    18:00 +24°C° 0 mm 1 m/s 711 mmHg 47%
    19:00 +22°C° 0 mm 1 m/s 710 mmHg 55%
    20:00 +20°C° 0 mm 1 m/s 710 mmHg 63%
    21:00 +19°C° 0 mm 1 m/s 710 mmHg 67%
    22:00 +18°C° 0 mm 1 m/s 711 mmHg 71%
    23:00 +16°C° 0 mm 1 m/s 711 mmHg 74%

    Après-demain, 27 Mai, Lundi

    Heure Température Précipitation Vent Pression Humidité
    00:00 +16°C° 0 mm 1 m/s 711 mmHg 76%
    01:00 +15°C° 0 mm 1 m/s 711 mmHg 78%
    02:00 +15°C° 0 mm 1 m/s 710 mmHg 79%
    03:00 +14°C° 0 mm 1 m/s 710 mmHg 81%
    04:00 +14°C° 0 mm 1 m/s 710 mmHg 83%
    05:00 +14°C° 0 mm 1 m/s 710 mmHg 84%
    06:00 +16°C° 0 mm 1 m/s 710 mmHg 78%
    07:00 +19°C° 0 mm 1 m/s 711 mmHg 71%
    08:00 +21°C° 0 mm 1 m/s 711 mmHg 65%
    09:00 +23°C° 0 mm 2 m/s 711 mmHg 59%
    10:00 +25°C° 0 mm 2 m/s 711 mmHg 54%
    11:00 +26°C° 0 mm 2 m/s 711 mmHg 49%
    12:00 +27°C° 0 mm 3 m/s 711 mmHg 48%
    13:00 +28°C° 0 mm 3 m/s 711 mmHg 46%
    14:00 +28°C° 0 mm 3 m/s 711 mmHg 44%
    15:00 +28°C° 0 mm 3 m/s 710 mmHg 46%
    16:00 +27°C° 0 mm 2 m/s 710 mmHg 48%
    17:00 +27°C° 0 mm 2 m/s 709 mmHg 51%
    18:00 +25°C° 0 mm 2 m/s 709 mmHg 57%
    19:00 +23°C° 0 mm 2 m/s 709 mmHg 63%
    20:00 +21°C° 0 mm 2 m/s 709 mmHg 69%
    21:00 +19°C° 0 mm 2 m/s 709 mmHg 73%
    22:00 +18°C° 0 mm 2 m/s 709 mmHg 77%
    23:00 +17°C° 0 mm 2 m/s 709 mmHg 81%

    28 Mai, Mardi

    Heure Température Précipitation Vent Pression Humidité
    00:00 +17°C° 0 mm 2 m/s 708 mmHg 83%
    01:00 +16°C° 0 mm 1 m/s 708 mmHg 84%
    02:00 +15°C° 0 mm 1 m/s 708 mmHg 85%
    03:00 +15°C° 0 mm 1 m/s 707 mmHg 84%
    04:00 +14°C° 0 mm 2 m/s 707 mmHg 83%
    05:00 +14°C° 0 mm 2 m/s 707 mmHg 81%
    06:00 +16°C° 0 mm 2 m/s 707 mmHg 72%
    07:00 +18°C° 0 mm 2 m/s 707 mmHg 64%
    08:00 +20°C° 0 mm 2 m/s 707 mmHg 55%
    09:00 +23°C° 0 mm 2 m/s 707 mmHg 48%
    10:00 +25°C° 0 mm 2 m/s 707 mmHg 41%
    11:00 +27°C° 0 mm 3 m/s 707 mmHg 34%
    12:00 +28°C° 0 mm 3 m/s 707 mmHg 33%
    13:00 +28°C° 0 mm 3 m/s 706 mmHg 32%
    14:00 +29°C° 0 mm 4 m/s 706 mmHg 31%
    15:00 +28°C° 0 mm 4 m/s 706 mmHg 34%
    16:00 +28°C° 0 mm 4 m/s 705 mmHg 38%
    17:00 +27°C° 0 mm 4 m/s 705 mmHg 41%
    18:00 +25°C° 0 mm 4 m/s 705 mmHg 47%
    19:00 +22°C° 0 mm 4 m/s 705 mmHg 54%
    20:00 +20°C° 0 mm 4 m/s 704 mmHg 60%
    21:00 +19°C° 0 mm 3 m/s 705 mmHg 64%
    22:00 +18°C° 0 mm 3 m/s 705 mmHg 67%
    23:00 +17°C° 0 mm 2 m/s 705 mmHg 71%

    29 Mai, Mercredi

    Heure Température Précipitation Vent Pression Humidité
    00:00 +16°C° 0 mm 2 m/s 705 mmHg 74%
    01:00 +15°C° 0 mm 2 m/s 705 mmHg 77%
    02:00 +15°C° 0 mm 2 m/s 706 mmHg 79%
    03:00 +14°C° 0 mm 2 m/s 706 mmHg 82%
    04:00 +14°C° 0 mm 1 m/s 706 mmHg 84%
    05:00 +14°C° 0 mm 1 m/s 706 mmHg 87%
    06:00 +16°C° 0 mm 1 m/s 706 mmHg 79%
    07:00 +18°C° 0 mm 2 m/s 707 mmHg 71%
    08:00 +20°C° 0 mm 2 m/s 707 mmHg 63%
    09:00 +21°C° 0 mm 2 m/s 707 mmHg 56%
    10:00 +24°C° 0 mm 2 m/s 708 mmHg 50%
    11:00 +26°C° 0 mm 3 m/s 708 mmHg 43%
    12:00 +26°C° 0 mm 3 m/s 708 mmHg 43%
    13:00 +27°C° 0 mm 3 m/s 708 mmHg 42%
    14:00 +27°C° 0 mm 4 m/s 708 mmHg 41%
    15:00 +27°C° 0.1 mm 3 m/s 708 mmHg 43%
    16:00 +26°C° 0.1 mm 3 m/s 708 mmHg 45%
    17:00 +26°C° 0.1 mm 3 m/s 708 mmHg 46%
    18:00 +24°C° 0.2 mm 3 m/s 708 mmHg 54%
    19:00 +21°C° 0.2 mm 2 m/s 708 mmHg 62%
    20:00 +19°C° 0.2 mm 2 m/s 708 mmHg 70%
    21:00 +18°C° 0 mm 2 m/s 709 mmHg 73%
    22:00 +17°C° 0 mm 2 m/s 709 mmHg 77%
    23:00 +16°C° 0 mm 1 m/s 709 mmHg 80%

    30 Mai, Jeudi

    Heure Température Précipitation Vent Pression Humidité
    00:00 +16°C° 0 mm 1 m/s 709 mmHg 81%
    01:00 +15°C° 0 mm 1 m/s 709 mmHg 82%
    02:00 +13°C° 0 mm 0 m/s 709 mmHg 83%
    03:00 +13°C° 0 mm 0 m/s 709 mmHg 83%
    04:00 +12°C° 0 mm 0 m/s 710 mmHg 83%
    05:00 +12°C° 0 mm 0 m/s 710 mmHg 84%
    06:00 +14°C° 0 mm 0 m/s 710 mmHg 76%
    07:00 +18°C° 0 mm 1 m/s 711 mmHg 68%
    08:00 +21°C° 0 mm 1 m/s 711 mmHg 60%
    09:00 +22°C° 0.1 mm 1 m/s 711 mmHg 57%
    10:00 +23°C° 0.1 mm 1 m/s 711 mmHg 54%
    11:00 +25°C° 0.1 mm 2 m/s 711 mmHg 51%
    12:00 +25°C° 0.8 mm 2 m/s 711 mmHg 53%
    13:00 +25°C° 0.8 mm 2 m/s 711 mmHg 56%
    14:00 +25°C° 0.8 mm 2 m/s 711 mmHg 58%
    15:00 +24°C° 1.1 mm 2 m/s 711 mmHg 62%
    16:00 +24°C° 1.1 mm 2 m/s 711 mmHg 65%
    17:00 +22°C° 1.1 mm 3 m/s 710 mmHg 69%
    18:00 +20°C° 0.6 mm 2 m/s 710 mmHg 74%
    19:00 +19°C° 0.6 mm 2 m/s 710 mmHg 79%
    20:00 +17°C° 0.6 mm 2 m/s 710 mmHg 85%
    21:00 +16°C° 0.5 mm 1 m/s 710 mmHg 87%
    22:00 +16°C° 0.5 mm 1 m/s 710 mmHg 90%
    23:00 +15°C° 0.5 mm 1 m/s 710 mmHg 92%
    Voir plus